カタログに戻る

STARLINK-4731

運用中通信VLEO
NORAD 53703·PAYLOAD·🇺🇸 United States

打ち上げ Sep 5, 2022 から Cape Canaveral Space Force Station

Loading…

次のパス (今後24時間)

TLE

最新Source: CelesTrak SupGP

元期: Sep 14, 2026, 14:47 UTC

1 53703C 22107D   26257.61645833  .00283320  00000+0  86170-2 0  2576
2 53703  53.1593 112.9587 0001196 103.6287 120.3018 15.33333958    12

AllMySatでSTARLINK-4731をリアルタイム追跡

Download on the App Store